New Bedford Regional Airport
KEWB : now visible

Airfield :











YOU CAN JOIN US ON...

 
LOGIN :

Register | Disclaimer

   EN    FR    IT 

 









Legend :    VFR   Marginal VFR   IFR   Intensive IFR   Very Intensive IFR
Visi :
Ceiling :
>= 8 km
>= 3000ft
5 to 8 km
1000 to 3000 ft
1500m to 5 km
500 to 1000 ft
800 to 1500m
200 to 500 ft
< 800m
< 200 ft
Symbols :   Thunderstorms  Fog  Heavy snow  Heavy precipitations  Wind > 20 kt






- Airport Elevation : 80 ft
- IATA code : EWB


KEWB - New Bedford Regional

CURRENT METAR :
  • 150753Z AUTO 25015G24KT 10SM FEW025 SCT035 07/02 A2932 RMK AO2 SLP929 T00720022 $

EXPIRED METARs :
  • 150724Z AUTO 23012G18KT 10SM SCT026 OVC034 08/04 A2929 RMK AO2 T00830044 $
  • 150653Z AUTO 22010KT 10SM BKN029 OVC034 08/04 A2928 RMK AO2 SLP913 T00830044 $
  • 150601Z AUTO 23012G22KT 10SM FEW022 OVC030 09/05 A2925 RMK AO2 T00940050 $

TAF N/A



MET'MAP, your aeronautical weather chart ! - Copyright ORBIFLY December 2007 - Disclaimer

ORBIFLY MET'MAP TEAM :

Programming & Development : Alexandra Zaïnal
Concept & original design : Baudouin d'Aumeries
Assistance for programming : Marc-Olivier Méhu
Technical & hardware support : Manuel Goepfert

Contact : metmap@orbifly.com




SOURCES & CREDITS :

   NOAA       Earth
Advisory